Hourly Weather Bolshie Staryshi

Today, 20 June, Sunday

Time Temperature Precipitation Wind Pressure Humidity
00:00 +19°C° 0 mm 2 mps 749 mmHg 90%
01:00 +19°C° 0 mm 2 mps 749 mmHg 91%
02:00 +19°C° 0 mm 2 mps 749 mmHg 93%
03:00 +19°C° 0 mm 2 mps 749 mmHg 93%
04:00 +19°C° 0 mm 2 mps 749 mmHg 93%
05:00 +21°C° 0 mm 1 mps 749 mmHg 93%
06:00 +21°C° 0 mm 2 mps 749 mmHg 88%
07:00 +24°C° 0 mm 2 mps 749 mmHg 83%
08:00 +25°C° 0 mm 2 mps 749 mmHg 79%
09:00 +26°C° 0 mm 2 mps 749 mmHg 74%
10:00 +27°C° 0 mm 3 mps 749 mmHg 70%
11:00 +28°C° 0 mm 3 mps 749 mmHg 66%
12:00 +28°C° 0 mm 3 mps 749 mmHg 64%
13:00 +29°C° 0 mm 3 mps 748 mmHg 62%
14:00 +29°C° 0 mm 2 mps 748 mmHg 59%
15:00 +29°C° 0 mm 2 mps 748 mmHg 62%
16:00 +29°C° 0 mm 2 mps 748 mmHg 65%
17:00 +29°C° 0 mm 2 mps 748 mmHg 68%
18:00 +27°C° 0 mm 2 mps 747 mmHg 73%
19:00 +25°C° 0 mm 2 mps 747 mmHg 77%
20:00 +24°C° 0 mm 2 mps 747 mmHg 82%
21:00 +23°C° 0 mm 2 mps 747 mmHg 82%
22:00 +21°C° 0 mm 2 mps 747 mmHg 83%
23:00 +20°C° 0 mm 2 mps 747 mmHg 84%

Tomorrow, 21 June, Monday

Time Temperature Precipitation Wind Pressure Humidity
00:00 +20°C° 0 mm 2 mps 747 mmHg 84%
01:00 +20°C° 0 mm 2 mps 747 mmHg 84%
02:00 +19°C° 0 mm 2 mps 747 mmHg 84%
03:00 +19°C° 0 mm 2 mps 747 mmHg 86%
04:00 +19°C° 0 mm 2 mps 747 mmHg 88%
05:00 +18°C° 0 mm 2 mps 747 mmHg 90%
06:00 +20°C° 0 mm 3 mps 747 mmHg 85%
07:00 +21°C° 0 mm 3 mps 747 mmHg 79%
08:00 +23°C° 0 mm 4 mps 747 mmHg 74%
09:00 +25°C° 0 mm 4 mps 747 mmHg 69%
10:00 +26°C° 0 mm 4 mps 747 mmHg 64%
11:00 +27°C° 0 mm 5 mps 747 mmHg 60%
12:00 +28°C° 0 mm 5 mps 747 mmHg 58%
13:00 +28°C° 0 mm 5 mps 746 mmHg 57%
14:00 +29°C° 0 mm 4 mps 746 mmHg 55%
15:00 +29°C° 0 mm 4 mps 746 mmHg 59%
16:00 +29°C° 0 mm 4 mps 746 mmHg 63%
17:00 +29°C° 0 mm 4 mps 746 mmHg 67%
18:00 +27°C° 0 mm 3 mps 746 mmHg 72%
19:00 +26°C° 0 mm 3 mps 746 mmHg 78%
20:00 +24°C° 0 mm 3 mps 746 mmHg 83%
21:00 +22°C° 0 mm 3 mps 746 mmHg 86%
22:00 +21°C° 0 mm 3 mps 746 mmHg 89%
23:00 +21°C° 0 mm 3 mps 746 mmHg 91%

Day after tomorrow, 22 June, Tuesday

Time Temperature Precipitation Wind Pressure Humidity
00:00 +20°C° 0 mm 3 mps 746 mmHg 93%
01:00 +20°C° 0 mm 3 mps 746 mmHg 94%
02:00 +19°C° 0 mm 3 mps 746 mmHg 96%
03:00 +19°C° 0 mm 3 mps 746 mmHg 95%
04:00 +20°C° 0 mm 3 mps 746 mmHg 94%
05:00 +20°C° 0 mm 3 mps 746 mmHg 94%
06:00 +21°C° 0 mm 4 mps 746 mmHg 87%
07:00 +23°C° 0 mm 4 mps 746 mmHg 81%
08:00 +25°C° 0 mm 5 mps 746 mmHg 74%
09:00 +27°C° 0 mm 5 mps 746 mmHg 69%
10:00 +28°C° 0 mm 5 mps 746 mmHg 63%
11:00 +29°C° 0 mm 5 mps 746 mmHg 58%
12:00 +30°C° 0 mm 5 mps 746 mmHg 57%
13:00 +30°C° 0 mm 5 mps 746 mmHg 57%
14:00 +32°C° 0 mm 4 mps 746 mmHg 56%
15:00 +32°C° 0 mm 4 mps 746 mmHg 59%
16:00 +30°C° 0 mm 4 mps 746 mmHg 62%
17:00 +30°C° 0 mm 4 mps 746 mmHg 65%
18:00 +28°C° 0 mm 3 mps 746 mmHg 71%
19:00 +27°C° 0 mm 3 mps 746 mmHg 76%
20:00 +25°C° 0 mm 3 mps 746 mmHg 82%
21:00 +24°C° 0 mm 3 mps 746 mmHg 84%
22:00 +22°C° 0 mm 3 mps 746 mmHg 87%
23:00 +20°C° 0 mm 3 mps 746 mmHg 89%

23 June, Wednesday

Time Temperature Precipitation Wind Pressure Humidity
00:00 +20°C° 0 mm 3 mps 746 mmHg 90%
01:00 +20°C° 0 mm 3 mps 746 mmHg 92%
02:00 +20°C° 0 mm 2 mps 747 mmHg 93%
03:00 +20°C° 0 mm 2 mps 747 mmHg 93%
04:00 +20°C° 0 mm 2 mps 747 mmHg 94%
05:00 +21°C° 0 mm 2 mps 747 mmHg 94%
06:00 +22°C° 0 mm 3 mps 747 mmHg 89%
07:00 +25°C° 0 mm 3 mps 747 mmHg 83%
08:00 +27°C° 0 mm 3 mps 747 mmHg 77%
09:00 +28°C° 0 mm 4 mps 747 mmHg 71%
10:00 +30°C° 0 mm 4 mps 747 mmHg 66%
11:00 +32°C° 0 mm 4 mps 747 mmHg 60%
12:00 +32°C° 0 mm 4 mps 747 mmHg 58%
13:00 +33°C° 0 mm 4 mps 747 mmHg 56%
14:00 +33°C° 0 mm 4 mps 747 mmHg 54%
15:00 +33°C° 0 mm 4 mps 747 mmHg 58%
16:00 +31°C° 0 mm 3 mps 747 mmHg 61%
17:00 +31°C° 0 mm 2 mps 747 mmHg 65%
18:00 +29°C° 0 mm 3 mps 747 mmHg 69%
19:00 +28°C° 0 mm 3 mps 747 mmHg 73%
20:00 +26°C° 0 mm 3 mps 747 mmHg 77%
21:00 +25°C° 0 mm 3 mps 747 mmHg 80%
22:00 +24°C° 0 mm 3 mps 747 mmHg 82%
23:00 +22°C° 0 mm 3 mps 747 mmHg 85%

24 June, Thursday

Time Temperature Precipitation Wind Pressure Humidity
00:00 +22°C° 0 mm 3 mps 747 mmHg 88%
01:00 +21°C° 0 mm 2 mps 747 mmHg 91%
02:00 +21°C° 0 mm 2 mps 747 mmHg 93%
03:00 +21°C° 0 mm 2 mps 747 mmHg 93%
04:00 +21°C° 0 mm 2 mps 747 mmHg 93%
05:00 +23°C° 0 mm 2 mps 747 mmHg 93%
06:00 +24°C° 0 mm 2 mps 747 mmHg 87%
07:00 +26°C° 0 mm 3 mps 747 mmHg 80%
08:00 +28°C° 0 mm 3 mps 747 mmHg 74%
09:00 +29°C° 0 mm 3 mps 747 mmHg 69%
10:00 +30°C° 0 mm 3 mps 747 mmHg 63%
11:00 +32°C° 0 mm 4 mps 748 mmHg 58%
12:00 +32°C° 0 mm 4 mps 747 mmHg 55%
13:00 +33°C° 0 mm 4 mps 747 mmHg 53%
14:00 +33°C° 0 mm 4 mps 747 mmHg 51%
15:00 +33°C° 0 mm 3 mps 747 mmHg 54%
16:00 +33°C° 0 mm 3 mps 747 mmHg 58%
17:00 +33°C° 0 mm 3 mps 746 mmHg 61%
18:00 +30°C° 0 mm 3 mps 746 mmHg 67%
19:00 +28°C° 0 mm 2 mps 745 mmHg 72%
20:00 +27°C° 0 mm 2 mps 745 mmHg 77%
21:00 +26°C° 0 mm 2 mps 745 mmHg 79%
22:00 +25°C° 0 mm 2 mps 745 mmHg 81%
23:00 +24°C° 0 mm 2 mps 746 mmHg 82%

25 June, Friday

Time Temperature Precipitation Wind Pressure Humidity
00:00 +24°C° 0 mm 2 mps 745 mmHg 85%
01:00 +23°C° 0 mm 2 mps 745 mmHg 88%
02:00 +21°C° 0 mm 3 mps 745 mmHg 91%
03:00 +23°C° 0 mm 2 mps 745 mmHg 91%
04:00 +23°C° 0 mm 2 mps 745 mmHg 91%
05:00 +23°C° 0 mm 2 mps 745 mmHg 91%
06:00 +24°C° 0 mm 3 mps 745 mmHg 86%
07:00 +26°C° 0 mm 3 mps 745 mmHg 81%
08:00 +27°C° 0 mm 4 mps 745 mmHg 76%
09:00 +28°C° 0 mm 4 mps 745 mmHg 70%
10:00 +29°C° 0 mm 4 mps 745 mmHg 65%
11:00 +30°C° 0 mm 4 mps 745 mmHg 60%
12:00 +30°C° 0.1 mm 4 mps 745 mmHg 60%
13:00 +30°C° 0.1 mm 4 mps 744 mmHg 60%
14:00 +30°C° 0.1 mm 4 mps 744 mmHg 59%
15:00 +28°C° 0.4 mm 4 mps 744 mmHg 69%
16:00 +26°C° 0.4 mm 4 mps 744 mmHg 78%
17:00 +23°C° 0.4 mm 4 mps 744 mmHg 87%
18:00 +22°C° 0.3 mm 3 mps 743 mmHg 88%
19:00 +21°C° 0.3 mm 2 mps 743 mmHg 88%
20:00 +22°C° 0.3 mm 1 mps 743 mmHg 89%
21:00 +21°C° 0.6 mm 1 mps 743 mmHg 90%
22:00 +20°C° 0.6 mm 1 mps 743 mmHg 91%
23:00 +20°C° 0.6 mm 1 mps 743 mmHg 93%
Show more